Total_Precipitation_Accumulation
0.44 0.39 0.49 0.57 0.54 0.56 0.75 0.73 0.64 0.42 0.34 0.37 0.39 0.40 0.39 0.39 0.35 0.32 0.37 0.41 0.45 0.52 0.57 0.58 0.59 0.59 0.61 0.72 0.80 1.01 1.24 1.42 1.43 1.41 1.47 1.51 1.49 1.54 1.55 1.57 1.63 1.75 1.87 2.02
0.35 0.25 0.33 0.41 0.37 0.41 0.46 0.47 0.44 0.35 0.39 0.36 0.37 0.33 0.35 0.38 0.37 0.37 0.40 0.43 0.43 0.49 0.54 0.57 0.59 0.59 0.62 0.70 0.76 0.90 1.10 1.30 1.40 1.40 1.45 1.48 1.44 1.50 1.55 1.57 1.59 1.68 1.72 1.73
0.52 0.25 0.48 0.67 0.49 0.47 0.48 0.48 0.48 0.48 0.45 0.37 0.35 0.36 0.40 0.41 0.42 0.44 0.46 0.45 0.45 0.50 0.54 0.56 0.57 0.57 0.63 0.70 0.72 0.80 0.96 1.15 1.27 1.32 1.35 1.37 1.37 1.44 1.52 1.55 1.52 1.54 1.56 1.53
0.82 0.60 1.00 0.74 0.41 0.42 0.48 0.53 0.52 0.50 0.44 0.41 0.41 0.43 0.42 0.41 0.44 0.47 0.47 0.45 0.47 0.53 0.55 0.54 0.55 0.58 0.60 0.64 0.68 0.73 0.84 1.00 1.20 1.26 1.27 1.26 1.28 1.32 1.39 1.45 1.46 1.40 1.38 1.36
1.19 0.89 0.64 0.41 0.29 0.42 0.52 0.57 0.51 0.43 0.36 0.34 0.34 0.34 0.37 0.36 0.37 0.43 0.45 0.43 0.46 0.53 0.56 0.54 0.54 0.57 0.59 0.62 0.66 0.72 0.85 0.96 1.11 1.21 1.22 1.19 1.22 1.24 1.24 1.26 1.31 1.27 1.23 1.27
1.41 1.07 0.66 0.44 0.23 0.27 0.46 0.64 0.42 0.35 0.33 0.34 0.35 0.43 0.42 0.36 0.32 0.34 0.35 0.37 0.42 0.47 0.51 0.50 0.52 0.54 0.57 0.63 0.66 0.71 0.85 0.96 1.03 1.10 1.14 1.11 1.14 1.18 1.16 1.13 1.15 1.14 1.09 1.11
1.19 0.98 0.49 0.29 0.18 0.24 0.59 0.70 0.36 0.31 0.32 0.33 0.43 0.49 0.41 0.33 0.32 0.33 0.36 0.38 0.41 0.44 0.46 0.49 0.51 0.53 0.57 0.63 0.70 0.73 0.80 0.86 0.93 0.99 1.02 0.99 1.03 1.05 1.07 1.07 1.06 1.04 0.98 1.00
0.98 1.08 0.60 0.26 0.26 0.53 0.64 0.34 0.26 0.25 0.26 0.28 0.31 0.30 0.29 0.31 0.32 0.35 0.38 0.39 0.40 0.43 0.43 0.45 0.48 0.49 0.53 0.62 0.69 0.70 0.71 0.74 0.83 0.91 0.92 0.89 0.96 0.96 0.95 1.00 1.04 1.03 1.00 1.02
0.81 0.72 0.48 0.36 0.42 0.45 0.37 0.31 0.24 0.23 0.22 0.25 0.27 0.29 0.30 0.32 0.33 0.36 0.38 0.38 0.39 0.40 0.39 0.41 0.46 0.47 0.52 0.58 0.62 0.70 0.70 0.71 0.76 0.84 0.89 0.89 0.92 0.93 0.93 0.93 0.95 0.98 0.98 0.96
0.54 0.41 0.35 0.33 0.31 0.27 0.23 0.25 0.23 0.23 0.24 0.26 0.27 0.28 0.31 0.32 0.35 0.38 0.40 0.40 0.40 0.38 0.39 0.43 0.48 0.49 0.52 0.56 0.60 0.68 0.69 0.69 0.72 0.78 0.88 0.87 0.89 0.90 0.92 0.94 1.01 1.04 0.99 0.95
0.45 0.33 0.27 0.23 0.23 0.24 0.21 0.20 0.19 0.20 0.21 0.25 0.26 0.28 0.30 0.33 0.37 0.40 0.41 0.41 0.40 0.37 0.39 0.43 0.46 0.49 0.50 0.53 0.58 0.65 0.67 0.66 0.67 0.71 0.83 0.87 0.90 0.93 0.94 0.92 1.11 1.23 1.11 1.09
0.41 0.31 0.35 0.28 0.23 0.23 0.24 0.22 0.22 0.22 0.23 0.22 0.24 0.27 0.30 0.36 0.38 0.39 0.39 0.38 0.36 0.35 0.36 0.42 0.45 0.49 0.49 0.51 0.54 0.60 0.66 0.68 0.66 0.69 0.81 0.85 0.89 0.95 1.00 0.98 1.02 1.03 1.07 1.15
0.29 0.21 0.24 0.24 0.23 0.22 0.24 0.24 0.25 0.26 0.26 0.26 0.25 0.27 0.31 0.36 0.38 0.38 0.36 0.38 0.38 0.39 0.39 0.42 0.44 0.47 0.50 0.49 0.50 0.56 0.65 0.68 0.69 0.69 0.79 0.84 0.81 0.88 0.92 0.92 0.94 0.96 0.99 1.05
0.21 0.22 0.23 0.21 0.24 0.23 0.21 0.22 0.24 0.25 0.24 0.25 0.26 0.29 0.31 0.33 0.34 0.34 0.37 0.41 0.40 0.37 0.39 0.41 0.41 0.44 0.48 0.48 0.46 0.52 0.60 0.66 0.69 0.72 0.77 0.82 0.81 0.83 0.82 0.87 0.91 0.95 1.00 1.08
0.19 0.22 0.23 0.22 0.21 0.20 0.18 0.18 0.20 0.22 0.23 0.23 0.23 0.26 0.30 0.31 0.33 0.34 0.34 0.37 0.36 0.35 0.36 0.36 0.37 0.41 0.45 0.44 0.44 0.52 0.62 0.69 0.72 0.78 0.81 0.82 0.82 0.84 0.81 0.81 0.85 0.90 0.98 1.15
0.19 0.16 0.16 0.18 0.19 0.19 0.18 0.19 0.20 0.24 0.25 0.25 0.26 0.30 0.33 0.33 0.31 0.30 0.31 0.32 0.33 0.36 0.37 0.37 0.39 0.43 0.45 0.43 0.43 0.50 0.60 0.78 0.85 0.87 0.87 0.86 0.86 0.85 0.84 0.84 0.87 0.91 0.99 1.14
0.24 0.18 0.17 0.17 0.18 0.19 0.21 0.22 0.24 0.27 0.28 0.29 0.33 0.34 0.34 0.31 0.27 0.28 0.31 0.32 0.33 0.36 0.38 0.39 0.41 0.43 0.44 0.44 0.48 0.54 0.63 0.75 0.87 0.90 0.90 0.91 0.92 0.89 0.87 0.90 0.92 0.92 0.98 1.12
0.26 0.24 0.23 0.24 0.25 0.23 0.23 0.22 0.24 0.27 0.29 0.31 0.32 0.34 0.35 0.33 0.32 0.33 0.35 0.32 0.30 0.31 0.37 0.41 0.43 0.43 0.43 0.46 0.54 0.60 0.70 0.79 0.87 0.96 1.00 1.02 1.02 0.96 0.95 0.95 0.92 0.94 0.99 1.10
0.22 0.22 0.22 0.23 0.24 0.24 0.26 0.27 0.27 0.26 0.26 0.26 0.27 0.31 0.33 0.34 0.34 0.35 0.34 0.31 0.31 0.37 0.43 0.44 0.45 0.42 0.44 0.52 0.64 0.69 0.78 0.86 0.94 1.00 1.04 1.12 1.11 1.03 1.00 0.98 0.98 0.98 1.02 1.09
0.24 0.24 0.23 0.23 0.21 0.23 0.25 0.27 0.27 0.24 0.24 0.26 0.27 0.27 0.29 0.31 0.33 0.35 0.34 0.35 0.42 0.50 0.51 0.50 0.46 0.46 0.53 0.62 0.74 0.77 0.82 0.92 1.01 1.06 1.09 1.12 1.14 1.14 1.11 1.07 1.05 1.05 1.07 1.10
0.27 0.25 0.24 0.23 0.21 0.22 0.25 0.28 0.29 0.27 0.26 0.28 0.32 0.33 0.33 0.34 0.35 0.35 0.36 0.41 0.47 0.50 0.51 0.50 0.49 0.58 0.71 0.80 0.80 0.79 0.85 0.97 1.04 1.08 1.13 1.18 1.20 1.19 1.17 1.13 1.10 1.10 1.10 1.09
0.32 0.30 0.29 0.27 0.28 0.29 0.30 0.31 0.33 0.32 0.31 0.32 0.34 0.35 0.36 0.36 0.35 0.37 0.42 0.53 0.59 0.58 0.54 0.52 0.59 0.72 0.83 0.85 0.79 0.82 0.90 1.03 1.10 1.11 1.16 1.18 1.24 1.27 1.22 1.19 1.17 1.14 1.13 1.11
0.40 0.39 0.38 0.39 0.40 0.41 0.38 0.38 0.39 0.40 0.41 0.42 0.42 0.42 0.43 0.44 0.42 0.42 0.52 0.58 0.59 0.60 0.59 0.65 0.73 0.78 0.82 0.82 0.84 0.88 1.00 1.13 1.20 1.21 1.22 1.23 1.28 1.33 1.32 1.28 1.21 1.19 1.20 1.18
0.49 0.47 0.48 0.50 0.49 0.46 0.48 0.50 0.50 0.50 0.51 0.53 0.53 0.52 0.51 0.49 0.49 0.53 0.61 0.64 0.63 0.63 0.67 0.74 0.75 0.76 0.79 0.81 0.88 0.99 1.13 1.24 1.29 1.30 1.30 1.30 1.32 1.36 1.35 1.32 1.27 1.20 1.17 1.15
0.56 0.55 0.55 0.56 0.59 0.62 0.62 0.59 0.55 0.54 0.52 0.55 0.56 0.56 0.56 0.56 0.61 0.67 0.67 0.66 0.65 0.65 0.67 0.70 0.71 0.73 0.75 0.83 0.94 1.10 1.22 1.31 1.40 1.43 1.41 1.39 1.37 1.38 1.38 1.32 1.25 1.17 1.12 1.10
0.59 0.60 0.63 0.66 0.70 0.72 0.68 0.62 0.59 0.58 0.55 0.54 0.55 0.56 0.58 0.60 0.62 0.66 0.67 0.67 0.66 0.68 0.70 0.70 0.71 0.76 0.83 0.91 1.00 1.14 1.24 1.31 1.41 1.44 1.40 1.37 1.36 1.36 1.37 1.32 1.20 1.11 1.05 1.03
0.61 0.61 0.60 0.61 0.65 0.68 0.67 0.66 0.65 0.64 0.59 0.56 0.56 0.58 0.59 0.60 0.62 0.63 0.63 0.64 0.66 0.67 0.70 0.73 0.76 0.82 0.89 0.98 1.06 1.15 1.22 1.29 1.40 1.48 1.44 1.39 1.38 1.38 1.36 1.27 1.15 1.06 0.99 0.98